User: anonymous   Login
Location: Ladrillo (historical)
(32.8195°N, 117.2231°W)
Time: 23:40:05
(UTC+00:00)
Language:

YAOGAN 6 - Orbit

View from above orbital plane
View from above orbital plane
View from above satellite
View from above satellite

Ground track
Ground track

The orbit data is extracted from the following two-line orbital elements,

1 34839U 09021A   21018.72143271  .00000664  00000-0  27205-4 0  9994
2 34839  97.0419  20.9405 0026932 337.4111  22.5942 15.27237766652655
Epoch (UTC): 18 January 2021 17:18:51
Eccentricity: 0.0026932
inclination: 97.0419°
perigee height: 465 km
apogee height: 502 km
right ascension of ascending node: 20.9405°
argument of perigee: 337.4111°
revolutions per day: 15.27237766
mean anomaly at epoch: 22.5942°
orbit number at epoch: 65265

The dashed part of the orbit path shows where the satellite is in the earth's shadow,  

DLR